Location: Unspecified
(0.0000°N, 0.0000°E)
Time: 17:00:14
(UTC+00:00)

deb Delta 126 - Pass Details

Date: 19 February 2026
Orbit: 1458 x 1580 km, 101.9° (Epoch: 8 March)

Event Time Altitude Azimuth Distance (km) Brightness Sun altitude
Rises 05:01:11 0° 345° (NNW) 4,749 ? -17.8°
Reaches altitude 10° 05:05:07 10° 329° (NNW) 3,772 ? -16.8°
Enters shadow 05:10:14 19° 293° (WNW) 3,108 ? -15.6°
Exits shadow 05:13:52 16° 264° (W) 3,291 ? -14.7°
Drops below altitude 10° 05:16:41 10° 246° (WSW) 3,769 ? -14.0°
Sets 05:20:40 0° 230° (SW) 4,744 ? -13.0°
